233  
ASUS41 KGYX 272110  
RWRGYX  
WEATHER ROUNDUP FOR MAINE AND NEW HAMPSHIRE  
NATIONAL WEATHER SERVICE GRAY ME  
500 PM EDT WED OCT 27 2021  
 
MEZ002-005-006-010-012-015-018-020-021-024-026-027-029-272200-  
MAINE  
 
CITY SKY/WX TMP DP RH WIND PRES REMARKS
 
PORTLAND MOCLDY 51 40 65 N17G33 29.78R  
SANFORD CLOUDY 52 40 63 N16G24 29.78R  
BAR HARBOR CLOUDY 48 42 80 N20G29 29.78S  
WISCASSET PTCLDY 52 41 66 VRB7G22 29.80R  
ROCKLAND CLOUDY 50 43 77 N18G35 29.77R  
FRYEBURG CLOUDY 55 35 47 NE6 29.82R  
LEWISTONAUBURN CLOUDY 52 39 61 N21G32 29.81R  
AUGUSTA CLOUDY 52 37 56 NE25G38 29.83R  
WATERVILLE CLOUDY 51 39 63 N14 29.82R  
BANGOR MOCLDY 50 38 63 N30G40 29.86R  
GREENVILLE N/A 44 34 67 N13G21 29.91R  
MILLINOCKET CLOUDY 49 36 61 NE14G26 29.95R  
HOULTON CLOUDY 47 36 65 NE17G28 29.95S  
PRESQUE ISLE CLOUDY 45 37 73 N13G23 30.03R  
FRENCHVILLE CLEAR 44 33 65 NE8 30.03S  
CARIBOU CLOUDY 45 35 68 NE14G22 30.02R  

 
 
NHZ002-005-008-009-011-012-014-272200-  
NEW HAMPSHIRE  
 
CITY SKY/WX TMP DP RH WIND PRES REMARKS
 
PORTSMOUTH CLOUDY 51 41 70 N14G25 29.78R  
ROCHESTER CLOUDY 52 41 66 N10G25 29.77R  
NASHUA CLOUDY 49 49 100 NW5 29.79R  
MANCHESTER CLOUDY 53 46 77 N3 29.77R  
CONCORD CLOUDY 54 37 52 N9 29.79R  
LACONIA CLOUDY 54 39 57 NE6 29.80R  
BERLIN CLEAR 54 34 46 VRB6 29.86R  
WHITEFIELD CLEAR 54 35 48 NE3 29.85R  
JAFFREY CLOUDY 52 48 86 VRB3 29.79R  
KEENE CLOUDY 52 45 77 N6 29.81R  
LEBANON CLOUDY 54 36 50 CALM 29.84R  
MT WASHINGTON FOG 34 32 93 NE38 N/A VSB 1/2 WCI 19  

 
 
VTZ005-007-008-272200-  
VERMONT  
 
CITY SKY/WX TMP DP RH WIND PRES REMARKS
 
ST JOHNSBURY N/A 54 37 52 MISG 29.86R  
MONTPELIER CLEAR 53 36 52 N10 29.92R  
BURLINGTON MOCLDY 53 39 59 N13 29.92R  

 
 
MAZ007-012-024-CTZ003-RIZ002-NYZ038-NYZ072-272200-  
SOUTHERN NEW ENGLAND AND NY  
 
CITY SKY/WX TMP DP RH WIND PRES REMARKS
 
BOSTON LGT RAIN 49 47 93 N18 29.75R FOG  
WORCESTER LGT RAIN 47 45 93 NE12G20 29.77R FOG  
PROVIDENCE CLOUDY 49 47 93 N22G29 29.73R  
HARTFORD CLOUDY 53 47 79 N10 29.79R  
ALBANY CLOUDY 54 41 61 N8 29.86R  
NEW YORK CITY CLOUDY 60 45 57 N16 29.75R  

 
 
ANZ081-ANZ082-ANZ150-NHZ014-MEZ023>029-272200-  
COASTAL MARINE OBSERVATIONS  
 
STATION/POSITION TIME TEMP WIND PRES WAVE
 
AIR SEA DIR/SP/G HT/PER  
(UTC) (F) (DEG/KT/KT) (MB) (FT/S)  
MOUNT DESERT ROC 2100 360/ 45/ 49 1005.1R  
ISLE OF SHOALS 2000 50 20/ 29/ 34 1006.4R  
JEFFREYS LEDGE 2026 55 N/A 19/12  
CASHES LEDGE BUO 2050 51 55 30/ 33/ 41 1003.7R 20/10  
GEORGES BANK BUO 2050 60 59 40/ 16/ 23 991.8F 18/10  

 
   
............KEY...........
 
 
WCI - WIND CHILL  
TC - TEMPERATURE IN CELSIUS  
VSB - VISIBILITY
IN MILES  
HX - HEAT INDEX  
FAIR- INDICATES FEW OR NO CLOUDS BELOW 12,000 FT, WITH NO  
SIGNIFICANT WEATHER AND/OR S TO VISIBILITY.  
 
 
 
CLICK HERE TO GO TO PREVIOUS BULLETINS.

The Nexlab ME Page
The Nexlab NH Page Main Text Page